QFA1 EGHQ-EGHQ

Flight info

Callsign QFA1
Flight time 0h 26m
Altitude 7000
Route DCT LND DCT CUL DCT NQY DCT
Aircraft A35K/H-SDE2E3GHIJ3J4J5LM1ORWXY/LB1D1

Departure

Time 2026-04-20 21:15
Airport Cornwall Airport Newquay (EGHQ)

Arrival

Time 2026-04-20 21:42
Airport Cornwall Airport Newquay (EGHQ)
Time Latitude Longitude Altitude Speed Heading
2026-04-20 20:58 50.44137 -5.00578 338 ft 0 kts 130°
2026-04-20 21:08 50.44146 -5.00596 351 ft 4 kts 124°
2026-04-20 21:08 50.44159 -5.00633 339 ft 4 kts 107°
2026-04-20 21:08 50.44163 -5.00674 331 ft 4 kts 86°
2026-04-20 21:08 50.44158 -5.00715 330 ft 4 kts 70°
2026-04-20 21:09 50.44153 -5.00735 331 ft 4 kts 67°
2026-04-20 21:09 50.44168 -5.00700 330 ft 4 kts 58°
2026-04-20 21:09 50.44174 -5.00662 332 ft 4 kts 89°
2026-04-20 21:09 50.44174 -5.00654 333 ft 0 kts 96°
2026-04-20 21:11 50.44174 -5.00653 333 ft 0 kts 96°
2026-04-20 21:12 50.44174 -5.00649 333 ft 1 kts 87°
2026-04-20 21:12 50.44177 -5.00632 334 ft 3 kts 73°
2026-04-20 21:12 50.44191 -5.00589 332 ft 6 kts 64°
2026-04-20 21:12 50.44215 -5.00511 333 ft 10 kts 64°
2026-04-20 21:13 50.44266 -5.00450 333 ft 11 kts 344°
2026-04-20 21:13 50.44323 -5.00571 332 ft 18 kts 303°
2026-04-20 21:13 50.44391 -5.00748 326 ft 20 kts 301°
2026-04-20 21:13 50.44456 -5.00922 326 ft 16 kts 300°
2026-04-20 21:14 50.44521 -5.01100 321 ft 19 kts 300°
2026-04-20 21:14 50.44595 -5.01229 316 ft 17 kts 339°
2026-04-20 21:14 50.44678 -5.01155 314 ft 12 kts 95°
2026-04-20 21:14 50.44650 -5.01059 316 ft 8 kts 120°
2026-04-20 21:15 50.44534 -5.00749 322 ft 68 kts 121°
2026-04-20 21:15 50.44179 -4.99808 358 ft 130 kts 120°
2026-04-20 21:15 50.43644 -4.98441 755 ft 153 kts 125°
2026-04-20 21:15 50.42766 -4.97570 1535 ft 153 kts 166°
2026-04-20 21:16 50.41720 -4.97997 2107 ft 170 kts 215°
2026-04-20 21:16 50.41199 -4.99702 2554 ft 186 kts 261°
2026-04-20 21:16 50.41177 -5.01828 2887 ft 205 kts 272°
2026-04-20 21:16 50.41120 -5.04212 3000 ft 235 kts 258°
2026-04-20 21:17 50.40660 -5.06755 3056 ft 243 kts 244°
2026-04-20 21:17 50.39967 -5.09173 3018 ft 247 kts 242°
2026-04-20 21:17 50.39115 -5.11472 2995 ft 236 kts 231°
2026-04-20 21:17 50.38212 -5.13475 3019 ft 221 kts 230°
2026-04-20 21:18 50.37321 -5.15347 3004 ft 208 kts 227°
2026-04-20 21:18 50.36396 -5.17157 3019 ft 225 kts 226°
2026-04-20 21:18 50.35304 -5.19162 3136 ft 259 kts 225°
2026-04-20 21:18 50.34030 -5.21394 3298 ft 288 kts 225°
2026-04-20 21:19 50.32717 -5.23623 3417 ft 267 kts 224°
2026-04-20 21:19 50.31492 -5.25660 3488 ft 247 kts 223°
2026-04-20 21:19 50.30351 -5.27531 3489 ft 229 kts 223°
2026-04-20 21:20 50.28480 -5.31248 3480 ft 213 kts 230°
2026-04-20 21:20 50.27611 -5.33136 3504 ft 214 kts 229°
2026-04-20 21:20 50.26787 -5.35046 3554 ft 208 kts 232°
2026-04-20 21:20 50.26012 -5.36909 3589 ft 201 kts 232°
2026-04-20 21:21 50.25275 -5.38716 3613 ft 194 kts 231°
2026-04-20 21:21 50.24576 -5.40471 3589 ft 187 kts 232°
2026-04-20 21:21 50.23870 -5.42188 3409 ft 193 kts 231°
2026-04-20 21:21 50.23098 -5.43983 3145 ft 205 kts 229°
2026-04-20 21:22 50.22264 -5.45871 2921 ft 216 kts 229°
2026-04-20 21:22 50.21407 -5.47776 2944 ft 213 kts 229°
2026-04-20 21:22 50.20552 -5.49651 2985 ft 212 kts 229°
2026-04-20 21:22 50.19673 -5.51456 3155 ft 207 kts 227°
2026-04-20 21:23 50.18793 -5.53232 3382 ft 207 kts 227°
2026-04-20 21:23 50.17888 -5.54985 3624 ft 207 kts 225°
2026-04-20 21:23 50.16820 -5.56402 3785 ft 201 kts 203°
2026-04-20 21:23 50.15508 -5.56935 3980 ft 194 kts 173°
2026-04-20 21:24 50.14199 -5.56585 4252 ft 191 kts 162°
2026-04-20 21:24 50.12873 -5.56124 4379 ft 199 kts 162°
2026-04-20 21:24 50.11496 -5.55665 4547 ft 206 kts 163°
2026-04-20 21:24 50.10228 -5.54730 4583 ft 204 kts 134°
2026-04-20 21:25 50.09513 -5.52885 4537 ft 200 kts 102°
2026-04-20 21:25 50.09397 -5.50729 4476 ft 202 kts 94°
2026-04-20 21:25 50.09335 -5.48528 4378 ft 206 kts 93°
2026-04-20 21:25 50.09292 -5.46279 4299 ft 209 kts 92°
2026-04-20 21:26 50.09272 -5.44045 4234 ft 209 kts 91°
2026-04-20 21:26 50.09275 -5.41781 4160 ft 209 kts 91°
2026-04-20 21:26 50.09301 -5.39513 4094 ft 209 kts 90°
2026-04-20 21:26 50.09334 -5.37254 4022 ft 208 kts 90°
2026-04-20 21:27 50.09355 -5.35004 3978 ft 208 kts 91°
2026-04-20 21:27 50.09344 -5.32743 3952 ft 209 kts 92°
2026-04-20 21:27 50.09346 -5.30490 3895 ft 209 kts 85°
2026-04-20 21:27 50.09831 -5.28365 3859 ft 211 kts 62°
2026-04-20 21:28 50.10819 -5.26699 3833 ft 207 kts 45°
2026-04-20 21:28 50.11910 -5.25331 3815 ft 197 kts 44°
2026-04-20 21:28 50.12951 -5.23974 3736 ft 194 kts 48°
2026-04-20 21:28 50.13983 -5.22635 3644 ft 193 kts 43°
2026-04-20 21:29 50.15115 -5.21499 3588 ft 195 kts 36°
2026-04-20 21:29 50.16321 -5.20550 3529 ft 194 kts 33°
2026-04-20 21:29 50.17533 -5.19654 3470 ft 192 kts 32°
2026-04-20 21:29 50.18752 -5.18792 3390 ft 193 kts 31°
2026-04-20 21:30 50.20105 -5.18530 3279 ft 205 kts 358°
2026-04-20 21:30 50.21493 -5.19263 3115 ft 214 kts 343°
2026-04-20 21:30 50.22405 -5.19867 2973 ft 215 kts 342°
2026-04-20 21:30 50.24192 -5.21152 2744 ft 207 kts 341°
2026-04-20 21:31 50.25042 -5.21797 2627 ft 203 kts 341°
2026-04-20 21:31 50.26285 -5.22774 2452 ft 197 kts 340°
2026-04-20 21:31 50.27846 -5.24068 2249 ft 187 kts 339°
2026-04-20 21:31 50.28605 -5.24714 2158 ft 180 kts 339°
2026-04-20 21:32 50.30025 -5.25861 2028 ft 166 kts 347°
2026-04-20 21:32 50.30752 -5.26225 1977 ft 159 kts 353°
2026-04-20 21:32 50.31827 -5.26469 1894 ft 155 kts
2026-04-20 21:32 50.32909 -5.26542 1833 ft 156 kts
2026-04-20 21:33 50.33989 -5.26601 1824 ft 155 kts
2026-04-20 21:33 50.35073 -5.26633 1844 ft 157 kts
2026-04-20 21:33 50.36152 -5.26633 1873 ft 158 kts
2026-04-20 21:33 50.36410 -5.26628 1878 ft 158 kts
2026-04-20 21:34 50.37398 -5.26589 1905 ft 159 kts
2026-04-20 21:34 50.38506 -5.26535 1934 ft 160 kts 10°
2026-04-20 21:34 50.39604 -5.26468 1977 ft 161 kts 10°
2026-04-20 21:34 50.40740 -5.26381 2022 ft 161 kts 11°
2026-04-20 21:35 50.41848 -5.26276 2066 ft 162 kts 11°
2026-04-20 21:35 50.42976 -5.26148 2124 ft 163 kts 12°
2026-04-20 21:35 50.44103 -5.26001 2169 ft 162 kts 13°
2026-04-20 21:35 50.45226 -5.25832 2213 ft 162 kts 14°
2026-04-20 21:36 50.46290 -5.25419 2222 ft 153 kts 37°
2026-04-20 21:36 50.47028 -5.24317 2288 ft 144 kts 58°
2026-04-20 21:36 50.47595 -5.23187 2356 ft 143 kts 59°
2026-04-20 21:36 50.47768 -5.22831 2389 ft 143 kts 59°
2026-04-20 21:37 50.48362 -5.21584 2434 ft 142 kts 60°
2026-04-20 21:37 50.48497 -5.21290 2447 ft 142 kts 60°
2026-04-20 21:37 50.48783 -5.20515 2479 ft 139 kts 71°
2026-04-20 21:37 50.49030 -5.19068 2443 ft 136 kts 86°
2026-04-20 21:38 50.49020 -5.17609 2393 ft 133 kts 99°
2026-04-20 21:38 50.48808 -5.16199 2290 ft 133 kts 108°
2026-04-20 21:38 50.48523 -5.14796 2173 ft 135 kts 109°
2026-04-20 21:38 50.48233 -5.13400 2024 ft 135 kts 108°
2026-04-20 21:39 50.47942 -5.12023 1804 ft 129 kts 109°
2026-04-20 21:39 50.47658 -5.10709 1638 ft 126 kts 109°
2026-04-20 21:39 50.47373 -5.09421 1488 ft 124 kts 110°
2026-04-20 21:39 50.47081 -5.08150 1325 ft 124 kts 110°
2026-04-20 21:40 50.46705 -5.06912 1134 ft 127 kts 118°
2026-04-20 21:40 50.46271 -5.05698 1001 ft 128 kts 116°
2026-04-20 21:40 50.45855 -5.04445 821 ft 131 kts 115°
2026-04-20 21:40 50.45425 -5.03165 636 ft 134 kts 117°
2026-04-20 21:41 50.44967 -5.01920 462 ft 134 kts 119°
2026-04-20 21:41 50.44499 -5.00673 357 ft 127 kts 117°
2026-04-20 21:41 50.44103 -4.99606 361 ft 97 kts 121°
2026-04-20 21:41 50.43814 -4.98836 377 ft 69 kts 121°
2026-04-20 21:42 50.43640 -4.98376 388 ft 27 kts 120°
2026-04-20 21:42 50.43554 -4.98145 393 ft 23 kts 121°
2026-04-20 21:42 50.43461 -4.97987 395 ft 14 kts 146°
2026-04-20 21:42 50.43450 -4.97942 398 ft 2 kts 64°
2026-04-20 21:43 50.43468 -4.97938 396 ft 4 kts 347°
2026-04-20 21:43 50.43497 -4.97996 395 ft 8 kts 301°
2026-04-20 21:43 50.43497 -4.97998 394 ft 0 kts 301°
2026-04-20 21:44 50.43528 -4.98076 392 ft 39 kts 301°
2026-04-20 21:44 50.43822 -4.98849 377 ft 123 kts 300°
2026-04-20 21:45 50.44376 -5.00296 507 ft 176 kts 302°
2026-04-20 21:45 50.44987 -5.01949 772 ft 173 kts 298°
2026-04-20 21:45 50.45032 -5.03767 1093 ft 166 kts 246°
2026-04-20 21:45 50.44239 -5.04994 1021 ft 166 kts 209°
2026-04-20 21:46 50.43329 -5.06174 918 ft 172 kts 222°
2026-04-20 21:46 50.42445 -5.07445 838 ft 171 kts 218°
2026-04-20 21:46 50.41512 -5.08639 659 ft 176 kts 215°
2026-04-20 21:46 50.40471 -5.09179 782 ft 142 kts 159°
2026-04-20 21:47 50.40029 -5.08139 1103 ft 129 kts 82°
2026-04-20 21:47 50.40335 -5.06856 976 ft 124 kts 71°
2026-04-20 21:47 50.40690 -5.05646 829 ft 120 kts 66°
2026-04-20 21:47 50.41028 -5.04531 904 ft 97 kts 66°
2026-04-20 21:48 50.41378 -5.03441 1231 ft 121 kts 68°
2026-04-20 21:48 50.41569 -5.02160 1110 ft 121 kts 93°
2026-04-20 21:48 50.41406 -5.00916 1019 ft 114 kts 108°
2026-04-20 21:48 50.41154 -4.99753 787 ft 113 kts 109°
2026-04-20 21:49 50.40890 -4.98744 1253 ft 103 kts 113°
2026-04-20 21:49 50.40567 -4.97551 1156 ft 122 kts 109°
2026-04-20 21:49 50.40846 -4.96424 1064 ft 119 kts 34°
2026-04-20 21:49 50.41656 -4.95970 850 ft 130 kts
2026-04-20 21:50 50.42542 -4.96262 695 ft 134 kts 333°
2026-04-20 21:50 50.43216 -4.97261 634 ft 136 kts 306°
2026-04-20 21:50 50.43700 -4.98551 478 ft 139 kts 302°
2026-04-20 21:50 50.44155 -4.99822 511 ft 112 kts 300°
2026-04-20 21:51 50.44511 -5.00889 1250 ft 120 kts 298°
2026-04-20 21:51 50.44802 -5.02432 1247 ft 156 kts 271°
2026-04-20 21:51 50.44626 -5.04059 1201 ft 148 kts 242°
2026-04-20 21:51 50.44513 -5.05610 936 ft 146 kts 295°
2026-04-20 21:52 50.45246 -5.06358 947 ft 126 kts
2026-04-20 21:52 50.45722 -5.05497 647 ft 117 kts 96°
2026-04-20 21:52 50.45569 -5.04254 514 ft 113 kts 105°
2026-04-20 21:52 50.45304 -5.03163 413 ft 102 kts 113°
2026-04-20 21:53 50.44953 -5.01999 466 ft 153 kts 114°
2026-04-20 21:53 50.44290 -5.00134 365 ft 234 kts 120°
2026-04-20 21:53 50.43372 -4.97701 741 ft 265 kts 120°
2026-04-20 21:53 50.42737 -4.96052 3234 ft 108 kts 118°
2026-04-20 21:54 50.42412 -4.95316 4188 ft 74 kts 118°
2026-04-20 21:54 50.42112 -4.94681 4751 ft 72 kts 121°
2026-04-20 21:54 50.42251 -4.94056 4219 ft 142 kts 346°
2026-04-20 21:54 50.42768 -4.94610 507 ft 42 kts 141°
2026-04-20 21:55 50.42770 -4.94643 378 ft 0 kts 134°